Lexington Weather

Lexington, Massachusetts, USA

32°F
12/8/2019 4:36pm 
  • Lexington Conditions: Mostly cloudy
  • Temperature: 32.2°F / 0.1°CColder 1.1°F than last hour.
  • Dew Point: 18.7°FIncreased 1.6°Fsince last hour.
  • Relative Humidity: 57%Increased 6.0% since last hour.
  • Wind: Wind from WNW WNW 1 mph, 10-min avg: 2 mph, gust: 5 mph
  • Barometer: 30.40 in Steady
  • Visibility: 10 miles
  • Snow Today: 0.0 in
  •   

Regional Weather Roundup
for Boston / Norton, MA

        
000
ASUS41 KBOX 081800
RWRBOX

REGIONAL WEATHER ROUNDUP
NATIONAL WEATHER SERVICE BOSTON/NORTON MA
100 PM EST SUN DEC 08 2019

NOTE:  "FAIR" INDICATES FEW OR NO CLOUDS BELOW 12,000 FEET WITH NO 
SIGNIFICANT WEATHER AND/OR OBSTRUCTIONS TO VISIBILITY.

MAZALL-081900-
EASTERN MASSACHUSETTS
  
CITY           SKY/WX    TMP DP  RH WIND       PRES   REMARKS
BOSTON         PTSUNNY   36  10  34 S12       30.46F WCI  28          
6HR MIN TEMP:  23; 6HR MAX TEMP:  37;                                

BEVERLY        FAIR      33  10  38 SW7       30.45F WCI  27          
LAWRENCE       FAIR      31   8  38 SW9       30.46F WCI  23          
BEDFORD        FAIR      32   6  33 S10       30.44F WCI  24          
BLUE HILL        N/A     31  10  41 SW13G21   30.42F WCI  21          
NORWOOD        FAIR      36  11  35 S9        30.46F WCI  29          
MARSHFIELD     NOT AVBL                                               
PLYMOUTH       FAIR      34  17  50 SW10      30.48F WCI  26          
TAUNTON        FAIR      36  17  46 SW9       30.48F WCI  29          
NEW BEDFORD    FAIR      36  23  59 SW10      30.48F WCI  28          
$$

MAZALL-081900-
CAPE COD AND THE ISLANDS
  
CITY           SKY/WX    TMP DP  RH WIND       PRES   REMARKS
FALMOUTH       SUNNY     34  16  47 SW8       30.49F WCI  27          
HYANNIS        NOT AVBL                                               
CHATHAM        FAIR      34  20  56 SW9       30.50F WCI  27          
PROVINCETOWN   FAIR      34  16  47 S10       30.49F WCI  26          
NANTUCKET      FAIR      35  22  58 SW8       30.50F WCI  29          
MARTHAS VNYRD  FAIR      37  22  54 S7        30.49F WCI  32          
$$
 
MAZALL-081900-
CENTRAL AND WESTERN MASSACHUSETTS
  
CITY           SKY/WX    TMP DP  RH WIND       PRES   REMARKS
WORCESTER      FAIR      28   6  39 SW9       30.39F WCI  19          
6HR MIN TEMP:   9; 6HR MAX TEMP:  28;                                

FITCHBURG      FAIR      32   4  30 S12       30.43F WCI  23          
ORANGE         FAIR      26  13  57 S12       30.42F WCI  16          
SPRINGFIELD    NOT AVBL                                               
WESTFIELD      FAIR      28  13  53 S9        30.43F WCI  19          
NORTH ADAMS    FAIR      30  11  45 MISG      30.35F                  
PITTSFIELD     FAIR      28  11  48 SW9       30.33F WCI  19          
$$
 
RIZALL-081900-
RHODE ISLAND
  
CITY           SKY/WX    TMP DP  RH WIND       PRES   REMARKS
PROVIDENCE     FAIR      36  19  50 S10       30.48F WCI  28          
6HR MIN TEMP:  17; 6HR MAX TEMP:  36;                                

NEWPORT        FAIR      37  23  56 S12       30.48F WCI  29          
BLOCK ISLAND   FAIR      37  24  59 S10       30.50F WCI  30          
SMITHFIELD     FAIR      34   9  35 S8        30.45F WCI  27          
WESTERLY       FAIR      38  22  52 SW8       30.50F                  
$$
 
CTZALL-081900-
CONNECTICUT
  
CITY           SKY/WX    TMP DP  RH WIND       PRES   REMARKS
BRADLEY INTL   CLOUDY    34  16  47 S10       30.45F WCI  26          
6HR MIN TEMP:   8; 6HR MAX TEMP:  34;                                

HARTFORD       FAIR      32  15  49 VRB5      30.47F WCI  27          
BRIDGEPORT     FAIR      36  18  48 S8        30.48F WCI  30          
DANBURY        FAIR      34  19  54 SW8       30.45F WCI  27          
GROTON         NOT AVBL                                               
NEW HAVEN      FAIR      38  20  48 SE7       30.48F                  
CHESTER        FAIR      34  10  37 S9        30.47F WCI  26          
MERIDEN        FAIR      33  13  43 S12       30.47F WCI  24          
WILLIMANTIC    FAIR      32   9  38 S9        30.48F WCI  24          
OXFORD         FAIR      33  17  51 S9        30.43F WCI  25          
$$

MEZ002-015-021-024-NHZ003-005-008-011-012-014-VTZ005-008-081900-
NORTHERN NEW ENGLAND
  
CITY           SKY/WX    TMP DP  RH WIND       PRES   REMARKS
PORTLAND ME    FAIR      33   7  33 SW5       30.44F WCI  29          
6HR MIN TEMP:   8; 6HR MAX TEMP:  33;                                

BANGOR ME      FAIR      28  11  48 S8        30.40F WCI  20          
CONCORD NH     FAIR      27   8  44 S9        30.41F WCI  18          
MANCHESTER NH  FAIR      31   8  38 S8        30.41F WCI  23          
NASHUA NH      FAIR      32   9  38 VRB6      30.43F WCI  26          
PORTSMOUTH NH  MOSUNNY   31   0  26 SW9       30.43F WCI  23          
JAFFREY NH     FAIR      28  32 100 SW7       30.37F WCI  21          
KEENE NH       FAIR      34  21  59 CALM      30.41F                  
BURLINGTON VT  CLOUDY    28  15  58 S20G26    30.28F WCI  15          
MT. WASHINGTON NOT AVBL                                               
$$

NYZ052-076-081900-
EASTERN NEW YORK
  
CITY           SKY/WX    TMP DP  RH WIND       PRES   REMARKS
ALBANY         PTSUNNY   28  14  55 S12       30.37F WCI  18          
6HR MIN TEMP:   1; 6HR MAX TEMP:  28;                                

NEW YORK CITY  PTSUNNY   40  19  43 S7G20     30.46F                  
6HR MIN TEMP:  28; 6HR MAX TEMP:  40;                                

$$
 
ANZALL-081900-
MARINE OBSERVATIONS
  
STATION/POSITION TIME  TEMP    WIND        PRES    VSBY  WAVE
                       AIR SEA DIR/SP/G                  HT/PER
                 (UTC) (F)     (DEG/KT/KT) (MB)    (MI)  (FT/S)
BOSTON BUOY      1650   32 47  180/ 10/ 12 1032.1          1/ 6
BUZZARDS BAY     1700   34     200/ 10/ 12 1033.5F
NANTUCKET SOUND  1740   32 42              1033.2F
MASS BAY-STELLWA 1704   33 46  230/ 12/ 14 1030.7F  1 7/8  1/ 3
ISLE OF SHOALS   1700   29     220/ 12/ 13 1031.6F
S OF BLOCK IS    1730      52                N/A           1/ 8
$$

......................KEY.........................
  SKY/WX - SKY CONDITION/PRESENT WEATHER
  TMP    - TEMPERATURE IN FAHRENHEIT
  DWPT   - DEWPOINT IN FAHRENHEIT
  RH     - RELATIVE HUMIDITY IN PERCENT
  WIND   - DIRECTION AND SPEED IN MPH
  PRES   - MEAN SEA LEVEL PRESSURE IN INCHES OF HG
  WCI    - WIND CHILL INDEX
  VSB    - VISIBILITY IN MILES
  HX     - HEAT INDEX
  TC     - TEMPERATURE IN CELSIUS
  VRB    - VARIABLE WIND DIRECTION
  N/A    - NOT AVAILABLE
  
      

Other recent Regional Weather Roundups

Sun Dec 8, 4:10pm

Sun Dec 8, 4:01pm

Sun Dec 8, 3:10pm

Sun Dec 8, 3:01pm

Sun Dec 8, 2:10pm

Sun Dec 8, 2:01pm

Sun Dec 8, 1:10pm

Sun Dec 8, 12:10pm

Sun Dec 8, 12:01pm

Sun Dec 8, 11:10am

Sun Dec 8, 11:00am

Sun Dec 8, 10:10am

Sun Dec 8, 10:01am

Sun Dec 8, 9:10am

Sun Dec 8, 9:00am

Sun Dec 8, 8:10am

Sun Dec 8, 8:00am

Sun Dec 8, 7:10am

Sun Dec 8, 7:00am

Sun Dec 8, 6:10am

Sun Dec 8, 6:00am

Sun Dec 8, 5:10am

Sun Dec 8, 5:00am

Sun Dec 8, 4:10am

Sun Dec 8, 4:00am

Sun Dec 8, 3:10am

Sun Dec 8, 3:00am

Sun Dec 8, 2:10am

Sun Dec 8, 2:00am

Sun Dec 8, 1:10am

Sun Dec 8, 1:00am

Sun Dec 8, 12:10am

Sun Dec 8, 12:01am

Sat Dec 7, 11:10pm

Sat Dec 7, 11:00pm

Sat Dec 7, 10:10pm

Sat Dec 7, 10:00pm

Sat Dec 7, 9:10pm

Sat Dec 7, 9:00pm

Sat Dec 7, 8:10pm

Sat Dec 7, 8:00pm

Sat Dec 7, 7:10pm

Sat Dec 7, 7:00pm

Sat Dec 7, 6:10pm

Sat Dec 7, 6:00pm

Sat Dec 7, 5:10pm

Sat Dec 7, 5:00pm

Sat Dec 7, 4:10pm

Sat Dec 7, 4:00pm

Sat Dec 7, 3:10pm

Sat Dec 7, 3:00pm

Sat Dec 7, 2:10pm

Sat Dec 7, 2:01pm

Sat Dec 7, 1:10pm

Sat Dec 7, 1:00pm

Sat Dec 7, 12:10pm

Sat Dec 7, 12:01pm

Sat Dec 7, 11:10am

Sat Dec 7, 11:00am

Sat Dec 7, 10:10am

Sat Dec 7, 10:01am

Sat Dec 7, 9:10am

Sat Dec 7, 9:00am

Sat Dec 7, 8:10am

Sat Dec 7, 8:00am

Sat Dec 7, 7:10am

Sat Dec 7, 7:00am

Sat Dec 7, 6:10am

Sat Dec 7, 6:00am

Sat Dec 7, 5:10am

Sat Dec 7, 5:00am

Sat Dec 7, 4:10am

Sat Dec 7, 4:00am

Sat Dec 7, 3:10am

Sat Dec 7, 3:00am

Sat Dec 7, 2:10am

Sat Dec 7, 2:01am

Sat Dec 7, 1:10am

Sat Dec 7, 1:00am

Sat Dec 7, 12:10am

Sat Dec 7, 12:01am

Fri Dec 6, 11:10pm

Fri Dec 6, 11:00pm

Fri Dec 6, 10:10pm

Fri Dec 6, 10:00pm

Fri Dec 6, 9:10pm

Fri Dec 6, 9:00pm

Fri Dec 6, 8:10pm

Fri Dec 6, 8:00pm

Fri Dec 6, 7:10pm

Fri Dec 6, 7:01pm

Fri Dec 6, 6:10pm

Fri Dec 6, 6:00pm

Fri Dec 6, 5:10pm

Fri Dec 6, 5:00pm

Fri Dec 6, 4:10pm

Fri Dec 6, 4:00pm

Fri Dec 6, 3:10pm

Fri Dec 6, 3:00pm

Fri Dec 6, 2:10pm

Fri Dec 6, 2:00pm

Fri Dec 6, 1:10pm

Fri Dec 6, 1:00pm

Fri Dec 6, 12:10pm

Fri Dec 6, 12:00pm

Fri Dec 6, 11:10am

Fri Dec 6, 11:00am

Fri Dec 6, 10:10am

Fri Dec 6, 10:00am

Fri Dec 6, 9:10am

Fri Dec 6, 9:00am

Fri Dec 6, 8:10am

Fri Dec 6, 8:00am

Fri Dec 6, 7:10am

Fri Dec 6, 7:00am

Fri Dec 6, 6:10am

Fri Dec 6, 6:01am

Fri Dec 6, 5:10am

Fri Dec 6, 5:00am

Fri Dec 6, 4:10am

Fri Dec 6, 4:00am

Fri Dec 6, 3:10am

Fri Dec 6, 3:00am

Fri Dec 6, 2:10am

Fri Dec 6, 2:00am

Fri Dec 6, 1:10am

Fri Dec 6, 1:00am

Fri Dec 6, 12:10am

Fri Dec 6, 12:00am

Thu Dec 5, 11:10pm

Thu Dec 5, 11:00pm

Thu Dec 5, 10:10pm

Thu Dec 5, 10:01pm

Thu Dec 5, 9:10pm

Thu Dec 5, 9:01pm

Thu Dec 5, 8:10pm

Thu Dec 5, 8:00pm

Thu Dec 5, 7:10pm

Thu Dec 5, 7:00pm

Thu Dec 5, 6:10pm

Thu Dec 5, 6:00pm

Thu Dec 5, 5:10pm

Thu Dec 5, 5:00pm

Meta data:

ID: 5c2a7881-bc54-4399-b1cd-2fd78d3269a8
Link: https://api.weather.gov/products/5c2a7881-bc54-4399-b1cd-2fd78d3269a8